Showing default

APRIZESAT 7, 39416

Orbit data source: Space-Track

APRIZESAT 7, 39416 is a payload satellite owned by SpaceQuest (US) in SSO that was launched on Thu, 21 Nov 2013 UTC via a DNEPR launch vehicle from the Orenburg, Russia (OREN). Payload-class satellites include a variety of spacecraft equipped with specific instruments for various scientific and technological missions. These include communications satellites like Starlink; space stations such as the ISS; scientific satellites like the Hubble; Earth observation satellites from companies like Planet Labs, Umbra, and HawkEye 360; GPS; miniature CubeSats for education and research; and military/defense satellites.

Loading next visibility...
Identifier
39416, 2013-066A
Orbit
SSO
Country
Flag of USUS
Related business
Manufacturer
SpaceQuest
Mission
Operational Commercial Communications
Bus & Motor
APRIZE, Unknown motor
Mass
14 kg wet, 14 kg dry
Launch date (UTC)
2013-11-21 (12 years ago)
Launch vehicle
DNEPR
Launch site
Orenburg, Russia (OREN)
Object type
Payload
Rocket body
Debris
Shape & HBR
Box + 1 Ant, 0.1 m
Radar Cross Section
0.060 m², Medium (>0.1 m² and < 1m²)

Expand to show TLE details & history
Last TLE update: 10 hours ago

TLE from 10 hours ago
0 APRIZESAT 7
1 39416U 13066A   25300.44267382  .00002227  00000-0  23041-3 0  9991
2 39416  97.7392 252.5962 0034718 262.7174  97.0098 14.90672617646546
Epoch: 2025-10-27T10:37Z
TLE epoch observation values (Epoch: 2025-10-27T10:37:27.018Z)
Latitude
0.00006°
Longitude
57.18916°
Altitude
601.916 km
Speed
7.557 km/s
True Right ascension
16h 50m 23s
True Declination
0° 00' 00"
Sunlit
Object was in daylight at epoch
Visualization orbit readout
Latitude
Unknown
Longitude
Unknown
Altitude
Unknown
Speed
Unknown
Apparent Right ascension
Unknown
Apparent Declination
Unknown
Sunlit
N/A
Visualization observer readout
Local Sidereal Time
15:44:24
Azimuth
Unknown
Elevation
Unknown
Doppler factor
Unknown
Orbital elements
Apogee altitude
617.058 km
Perigee altitude
568.655 km
Semi-major axis
6,970.993 km
Eccentricity
0.00347
Inclination
97.7392°
RAAN
252.5962°
Arg. of periapsis
262.7174°
True anomaly
97.40445°
Mean anomaly
97.0098°
Eccentric anomaly
97.20715°
Mean motion
3.72908 °/min
Orbital period
96.54 mins
BSTAR
0.00023041
Loading maneuver chart data...
Computing Atmospheric mass density...
Loading historical data...
Loading historical data...
Loading historical data...
Loading historical data...
Loading historical data...
Loading historical data...
Loading historical data...

Documentation

Showing up to 5 results
|